Location: Austin
(30.3000°N, 97.7500°W)
Time: 02:52:05
(UTC-06:00)

GP-B - Visible Passes

Search period start: 04 March 2024 00:00
Search period end: 14 March 2024 01:00
Orbit: 625 x 630 km, 89.8° (Epoch: 03 March)

Date Brightness Start Highest point End Pass type
(mag) Time Alt. Az. Time Alt. Az. Time Alt. Az.
04 Mar 5.3 05:25:41 10° NNE 05:29:28 28° E 05:33:15 10° SSE visible
05 Mar 3.8 05:45:08 10° NNE 05:49:28 56° E 05:53:48 10° S visible
06 Mar 3.0 06:05:01 10° N 06:09:24 71° W 06:13:47 10° S visible
07 Mar 6.3 04:49:43 10° NE 04:52:01 14° E 04:54:18 10° ESE visible
07 Mar 3.7 06:25:16 10° NNW 06:29:15 34° W 06:33:14 10° SSW visible
07 Mar 6.4 18:53:08 10° SW 18:55:50 16° W 18:58:34 10° NW visible
08 Mar 5.3 05:08:21 10° NNE 05:12:06 27° E 05:15:49 10° SE visible
09 Mar 3.9 05:27:46 10° NNE 05:32:07 54° E 05:36:24 10° S visible
10 Mar 3.0 06:47:37 10° N 06:52:01 74° W 06:56:24 10° S visible
11 Mar 6.3 05:32:26 10° NE 05:34:37 13° E 05:36:46 10° ESE visible
11 Mar 3.6 07:07:50 10° NNW 07:11:52 36° W 07:15:53 10° SSW visible
12 Mar 5.3 05:50:59 10° NNE 05:54:41 26° E 05:58:22 10° SE visible
13 Mar 3.9 06:10:22 10° NNE 06:14:41 52° E 06:18:58 10° SSE visible
